Wind_Speed
16 16 15 15 15 15 15 15 14 14 13 13 12 12 12 12 11 11 10 10 10 10 10 9 9 10 10 10 10 10 9 9 8 8 8 8 9 8 7 6 7 6 6 6 6 5 5 6 7 7 7 7 7 7 7 6 6 6 6 5 6 6 4 5 7 8 9 10 11 12 12 12 12 10 9 11 13 13 14 15 16 17 17 17 18
16 15 15 15 16 15 15 15 15 15 15 14 14 13 12 12 12 11 11 11 11 11 10 10 10 10 11 10 10 9 9 9 9 9 9 9 9 9 8 7 8 7 7 7 7 7 6 7 8 8 8 8 8 8 8 7 7 7 6 6 6 6 5 6 8 9 10 11 12 12 12 11 12 11 12 13 14 14 15 16 16 16 16 17 18
15 15 15 14 15 15 15 15 15 16 16 15 15 15 14 13 13 13 12 12 12 12 11 11 11 11 11 10 10 10 9 10 11 10 9 9 9 9 8 7 8 8 8 8 7 8 8 8 8 9 9 8 8 8 8 8 8 8 8 8 8 8 8 8 8 9 11 11 12 13 13 12 13 13 13 14 14 15 16 16 16 17 17 17 18
15 15 15 14 14 15 15 15 15 15 16 16 16 16 15 15 14 14 14 13 13 13 12 12 11 12 12 10 10 11 10 11 11 11 10 10 9 9 8 8 8 8 8 8 8 8 8 9 9 9 9 9 8 8 9 9 9 8 9 8 8 9 9 9 9 9 10 12 12 13 13 14 14 14 14 15 15 16 16 17 17 17 18 18 18
15 16 16 15 15 15 14 14 15 16 16 16 16 16 16 16 15 15 14 14 13 13 13 12 12 12 12 12 11 11 11 11 11 12 11 11 10 10 10 9 9 9 9 9 8 9 9 9 9 9 9 9 9 9 9 9 9 9 9 9 9 9 9 9 10 10 11 13 13 14 14 15 15 14 14 15 15 16 17 17 17 18 18 18 17
15 16 16 16 15 15 15 15 15 15 15 15 15 16 16 16 16 16 15 14 14 13 13 13 13 13 13 13 12 12 12 12 12 12 12 11 10 10 10 10 10 10 10 10 10 10 10 10 10 10 10 10 10 10 9 9 9 9 10 10 10 10 11 11 11 11 12 13 14 15 15 14 15 14 14 14 16 17 18 18 17 17 17 17 17
13 13 13 15 15 15 16 16 15 15 15 15 14 15 15 15 16 16 15 15 15 14 14 14 13 14 14 13 13 13 12 12 12 12 12 12 11 11 11 10 10 10 10 10 11 11 11 11 11 11 11 11 11 10 10 10 10 10 11 11 11 11 12 12 12 12 13 14 14 15 15 15 15 15 15 16 16 16 16 17 17 17 17 18 18
10 11 11 12 14 15 16 16 16 16 15 14 14 13 14 14 15 15 15 15 15 15 15 15 14 14 14 14 14 14 13 14 14 13 13 12 12 11 11 11 11 10 11 11 11 11 12 12 12 12 11 11 11 12 11 10 10 11 11 10 11 11 12 12 13 13 13 14 15 15 15 16 16 16 16 15 15 15 15 17 19 20 19 18 18
8 9 11 11 11 12 14 14 16 16 15 14 13 13 13 14 14 15 15 15 15 15 15 15 15 14 14 14 14 14 15 15 14 14 14 13 13 12 11 11 11 11 11 11 12 12 12 13 13 12 11 10 10 12 13 12 12 12 11 10 10 11 12 13 13 13 14 14 15 16 16 16 15 16 16 16 16 18 18 19 21 21 21 21 21
11 10 10 11 10 10 11 11 12 15 16 15 14 14 14 14 14 14 14 15 15 15 15 15 15 15 15 14 15 15 16 15 15 15 15 13 12 11 11 11 12 11 11 11 12 12 13 14 14 13 12 12 12 14 15 16 15 15 14 13 13 12 12 13 14 14 15 15 16 16 16 16 17 17 18 19 20 20 19 19 20 22 22 22 21
15 14 12 12 13 12 11 10 11 13 14 13 13 14 14 14 14 14 14 15 14 14 14 15 16 16 16 15 15 15 15 15 16 17 17 16 13 11 11 12 12 12 11 12 13 14 14 15 15 14 15 15 16 16 17 17 16 17 18 18 19 17 16 15 15 15 16 16 17 17 17 18 19 19 19 20 21 20 20 20 20 21 20 18 19
13 15 14 14 15 14 13 12 13 12 10 8 9 10 11 12 13 14 14 14 15 14 15 16 16 16 16 16 16 16 15 15 16 16 17 18 17 14 13 13 13 13 13 13 14 14 14 15 15 16 15 14 13 14 14 14 14 16 17 18 19 19 19 19 18 17 17 17 16 17 17 18 19 19 19 19 21 22 22 22 21 20 19 19 19
9 10 12 14 14 14 13 13 13 12 10 9 7 7 8 10 12 14 15 15 14 15 16 16 16 17 17 16 16 16 16 15 16 16 16 17 17 15 14 14 14 14 13 13 13 13 13 13 14 15 15 14 12 11 12 12 13 15 17 17 17 17 17 18 19 20 21 20 19 18 17 18 19 20 19 20 21 22 22 22 22 21 22 21 21
3 5 7 9 11 11 11 12 13 12 11 11 10 10 9 10 10 12 13 14 15 15 16 16 16 17 17 17 17 15 11 10 12 14 16 16 15 15 14 14 15 15 14 14 14 14 14 13 13 14 14 13 12 12 12 11 11 12 13 13 13 13 13 14 16 17 18 20 21 20 19 18 19 20 21 21 20 20 21 22 23 24 25 26 26
4 3 3 3 6 7 8 10 10 11 12 12 12 12 11 11 11 11 11 12 13 14 15 15 15 15 15 15 14 10 5 7 12 13 13 13 14 14 14 14 15 16 15 15 15 15 14 14 14 12 9 8 8 8 9 9 9 9 10 11 11 11 13 14 14 14 14 16 18 20 19 19 19 21 23 24 23 22 22 22 22 23 25 25 25
8 7 6 4 2 2 5 7 5 5 9 11 11 10 9 9 11 13 14 14 13 13 14 13 11 10 11 10 8 4 3 6 8 11 11 11 12 12 13 15 17 17 17 16 16 14 12 11 9 7 5 6 7 6 7 8 9 9 10 12 11 11 13 14 14 14 15 15 17 19 21 21 21 23 26 26 25 25 24 22 20 20 21 22 22
12 11 10 7 6 5 4 4 3 3 4 7 8 7 7 7 8 10 12 13 13 12 12 12 10 8 10 11 7 6 8 8 6 8 10 11 12 11 12 14 15 15 16 14 11 8 8 8 6 4 6 7 8 7 8 8 8 8 10 11 11 11 12 13 14 15 16 17 18 20 22 22 23 26 27 26 24 23 23 22 19 19 20 19 19
13 12 11 10 9 8 8 8 7 5 4 4 4 4 4 6 7 9 9 8 8 10 10 12 14 13 12 12 7 3 7 10 10 12 13 13 14 13 10 11 13 13 14 13 9 6 7 8 6 4 6 7 7 7 8 8 7 5 7 9 11 12 13 13 13 13 14 16 18 20 21 22 23 25 26 25 22 20 21 22 20 19 20 19 18
12 12 11 11 11 9 9 10 8 6 4 3 2 1 2 3 3 5 7 5 5 8 8 8 11 10 8 10 9 4 4 6 8 10 12 13 14 11 7 9 13 14 12 12 10 7 5 7 8 6 5 5 4 5 6 7 6 5 6 8 10 11 10 11 12 13 15 17 17 18 19 20 20 21 22 21 19 16 17 19 19 17 17 18 18
11 11 10 10 10 10 9 8 8 6 4 4 3 3 2 2 2 2 3 3 3 7 6 4 4 3 0 3 6 4 2 4 3 4 6 7 8 6 5 6 9 9 6 6 8 6 3 4 7 5 3 2 4 6 7 8 8 8 7 7 9 10 11 13 16 18 18 18 16 16 17 16 16 16 17 16 15 13 12 13 14 15 16 18 19
10 10 9 9 9 9 8 7 6 6 6 5 5 6 6 4 3 2 2 2 2 4 5 4 5 6 6 5 7 5 3 3 2 2 2 2 2 4 4 3 3 3 2 2 4 4 3 3 4 4 4 5 7 9 10 10 9 9 8 7 9 11 13 15 16 16 15 14 14 13 13 13 13 13 13 13 12 12 12 12 13 14 16 18 19
10 10 9 9 9 8 7 6 5 6 7 6 6 6 7 7 6 4 4 5 5 4 5 7 8 9 8 7 6 4 3 2 2 2 4 5 5 5 4 4 3 2 1 4 4 5 6 5 5 6 6 7 8 9 10 9 8 8 8 8 9 11 11 11 11 10 10 10 11 11 12 12 12 11 11 12 12 13 13 14 14 15 16 17 19
9 9 8 8 8 7 7 6 6 6 6 6 6 6 7 8 7 5 6 8 7 6 6 7 7 8 7 6 4 2 1 2 2 1 3 5 7 7 6 7 7 6 2 3 5 6 8 8 7 7 7 8 9 10 10 9 8 8 9 9 8 9 9 9 8 8 8 9 10 11 11 12 12 12 12 12 13 14 15 17 17 17 18 18 19
6 7 7 6 6 6 6 5 4 4 4 4 5 6 6 7 6 5 5 7 7 6 6 6 6 5 5 5 4 4 6 8 7 6 6 8 9 9 8 9 10 8 4 2 5 7 10 11 9 7 8 8 8 9 9 8 8 8 10 9 7 7 8 7 7 7 7 8 10 11 11 12 12 13 13 13 15 17 18 17 16 16 17 18 18
5 6 5 4 3 4 4 3 2 2 1 2 4 5 5 5 5 5 5 6 5 4 4 5 5 5 5 6 5 4 6 7 8 9 10 10 10 10 9 9 8 7 4 3 6 8 10 11 10 9 9 8 8 8 8 7 8 9 8 6 5 7 8 6 6 7 7 9 10 10 11 12 12 13 13 15 16 17 16 15 14 15 16 17 19
4 4 3 3 2 2 2 2 2 1 1 1 3 3 3 4 5 4 4 5 4 3 3 3 3 2 3 5 5 4 4 5 5 7 8 8 9 9 9 8 8 8 6 6 7 8 10 11 11 10 9 7 7 7 7 7 8 9 7 5 6 8 7 4 4 6 8 9 9 10 11 12 13 14 15 15 16 15 15 14 15 16 16 18 20
3 2 2 2 2 2 2 2 2 2 2 2 3 4 4 4 4 4 4 4 4 3 3 3 3 3 1 1 2 2 5 8 8 7 6 5 6 7 8 8 8 8 7 7 7 8 10 13 13 10 8 7 7 7 7 7 7 8 9 8 7 7 5 4 6 7 7 8 8 10 12 13 13 14 14 14 15 15 14 14 15 17 17 18 20
3 2 2 3 3 3 3 2 2 3 3 4 6 7 7 6 6 6 7 7 6 5 4 3 4 5 6 5 4 3 6 11 9 7 7 6 6 6 6 6 5 4 6 7 8 9 11 12 12 10 8 8 7 8 9 8 7 7 7 6 5 6 6 5 6 6 5 7 10 12 13 12 12 13 14 14 14 14 14 14 16 17 18 17 18
4 4 3 4 4 3 2 3 4 4 4 5 6 8 8 7 7 6 6 5 4 4 4 4 5 5 6 5 4 5 8 9 8 7 7 6 5 3 3 4 3 4 6 7 8 9 9 10 10 9 8 8 8 8 9 9 7 5 4 3 5 7 6 5 6 6 6 10 12 13 12 12 13 13 14 14 14 14 14 15 17 17 17 16 17
5 6 6 7 7 6 5 5 6 6 5 5 6 6 6 6 6 6 6 6 5 3 3 3 3 3 4 4 4 4 5 6 6 6 5 4 3 2 3 4 4 5 6 6 7 8 8 8 8 7 7 7 7 6 5 5 4 4 4 4 5 7 7 6 7 8 10 13 13 12 12 13 13 13 13 13 14 15 15 16 15 16 16 16 16
6 6 7 7 8 8 7 7 6 6 7 6 5 3 2 3 4 6 8 9 7 6 5 5 4 2 1 3 3 4 4 4 5 5 4 4 4 4 5 5 5 5 5 5 7 8 8 8 7 7 6 5 5 5 4 4 5 5 6 6 7 7 7 7 8 11 13 14 12 11 12 13 13 13 13 14 15 16 15 15 14 15 15 16 16
6 6 7 7 6 6 6 6 6 5 5 5 5 4 2 1 2 3 5 6 7 7 6 6 5 4 2 1 1 3 4 5 5 4 4 5 5 5 6 6 6 6 5 6 7 8 8 8 7 6 6 5 5 4 4 4 5 5 6 7 7 8 8 8 11 13 13 12 11 12 13 13 12 12 13 14 15 15 15 14 15 15 15 16 15
7 6 6 5 5 5 5 5 5 5 5 5 5 5 5 4 2 1 1 1 2 3 3 4 5 5 5 4 4 6 7 7 6 6 6 6 5 6 6 6 6 6 6 7 8 8 8 8 7 6 6 5 4 4 4 5 6 6 6 7 7 8 8 9 11 11 10 11 12 14 13 12 12 13 14 14 14 14 14 15 15 15 15 15 15
6 7 6 5 4 5 5 5 5 5 5 5 5 5 5 5 5 4 2 2 2 2 2 2 2 3 6 8 8 8 8 8 8 8 7 7 7 7 7 7 7 8 9 10 9 8 8 7 6 6 5 5 5 6 6 6 6 7 7 8 8 8 8 10 11 11 10 12 14 14 14 14 14 14 15 14 14 14 15 15 15 15 15 15 16
4 5 6 6 4 4 4 5 5 5 5 5 5 5 5 5 5 5 5 4 4 3 2 3 2 2 6 8 8 8 9 11 13 12 10 9 8 8 9 9 9 9 10 11 10 8 7 6 6 6 6 6 7 7 7 7 8 8 8 8 8 9 9 10 11 11 12 13 14 14 14 15 14 14 15 15 15 16 16 15 15 15 15 16 16
2 2 3 4 4 3 4 4 4 5 5 5 5 5 5 5 5 5 5 5 5 5 4 2 3 4 4 5 6 9 12 14 14 12 8 7 7 7 8 8 8 8 7 7 8 8 7 7 6 6 7 7 8 8 8 9 9 10 10 10 11 11 11 11 11 12 13 14 14 14 15 15 15 15 15 16 16 16 16 16 16 16 16 16 17
1 2 3 3 3 3 3 3 3 4 4 4 4 4 5 5 5 5 5 5 4 5 5 5 4 4 4 3 3 9 12 12 12 9 5 3 5 6 7 8 8 8 7 6 6 7 7 7 7 7 8 9 10 10 11 11 11 11 11 11 12 12 12 13 14 14 14 14 14 14 15 15 15 15 16 17 17 17 17 17 18 17 17 18 18
1 2 2 1 1 2 3 2 2 3 3 3 3 4 4 5 5 5 5 5 5 5 5 5 5 5 5 4 3 9 12 13 13 11 6 4 4 5 7 7 8 7 7 7 7 7 8 8 8 9 10 11 11 12 13 13 12 11 11 12 12 13 14 14 15 15 15 14 14 14 15 15 15 15 16 17 18 18 18 18 18 18 18 19 19
2 2 3 2 0 1 3 3 3 3 4 4 4 4 4 4 5 5 5 5 5 5 5 5 6 5 4 3 5 8 11 13 14 13 9 6 5 6 7 7 8 7 8 8 8 8 9 9 10 10 10 10 11 11 13 13 13 12 11 11 12 14 15 15 15 15 15 15 15 15 16 16 17 17 17 17 18 19 19 19 19 19 20 20 20
4 4 2 2 2 2 3 4 3 3 2 3 4 4 4 4 5 5 5 5 6 5 5 6 6 3 5 6 7 9 11 12 13 12 11 9 8 8 8 8 8 8 8 8 8 7 9 11 12 13 12 11 10 11 12 13 13 12 12 12 12 14 14 15 16 16 17 17 17 17 18 18 18 18 19 18 18 19 20 21 21 21 21 21 21
5 4 3 2 3 3 4 5 3 2 2 3 4 4 5 4 4 5 5 6 6 5 6 6 4 2 4 7 10 11 12 12 12 12 11 9 9 9 9 9 9 9 9 9 9 8 11 13 13 12 12 12 12 13 13 14 14 13 12 12 12 13 14 16 17 17 18 19 19 20 20 21 20 20 21 21 21 21 21 21 21 21 21 22 22
6 5 5 4 3 3 4 4 3 1 3 4 3 3 3 4 4 5 5 5 6 6 7 7 4 2 3 7 11 13 12 10 9 9 10 9 9 9 9 10 10 10 10 9 9 10 11 12 12 12 12 12 13 13 13 14 14 13 13 13 13 14 15 17 18 18 19 20 20 21 22 22 22 22 23 24 23 22 22 21 21 21 22 22 22
7 6 5 5 5 4 4 4 3 4 4 3 2 2 2 3 5 5 5 6 6 6 7 8 7 4 3 5 9 12 10 7 7 8 8 8 9 9 9 10 10 10 11 11 10 10 11 11 11 11 12 12 12 12 12 13 13 13 14 14 14 15 16 17 18 19 20 20 21 22 22 23 23 23 24 24 24 23 23 23 22 22 22 22 22
7 7 7 6 6 5 5 4 4 5 3 2 2 3 3 4 5 6 6 7 7 7 7 8 9 8 6 6 8 9 8 7 7 8 8 8 9 9 9 10 10 10 10 10 10 10 11 11 12 12 12 11 12 12 12 12 13 13 14 14 15 16 17 18 18 18 18 20 21 22 22 23 24 24 24 24 23 23 24 24 24 24 24 24 24
7 7 8 7 7 6 6 5 5 5 4 4 5 5 4 5 5 6 7 7 7 8 9 8 9 9 9 9 9 9 9 8 9 9 9 9 9 9 9 10 10 10 10 10 10 10 11 11 11 12 12 12 12 13 13 13 13 13 13 14 15 16 15 15 15 15 16 17 18 19 19 20 20 21 21 22 22 23 23 24 25 26 26 26 26
8 7 7 7 6 6 6 5 5 6 5 5 5 5 5 5 6 6 6 6 6 8 9 9 9 9 10 9 9 9 9 9 9 9 9 9 9 10 10 10 10 10 10 10 11 11 11 11 12 12 12 13 13 13 13 13 13 13 13 14 14 12 11 11 13 15 14 15 17 18 19 20 20 21 22 24 25 25 26 26 26 26 27 28 28
6 6 6 6 6 6 5 5 5 5 5 5 5 5 5 5 5 5 5 5 6 8 9 9 9 9 9 9 9 9 9 9 9 9 10 10 10 10 10 10 10 11 11 11 11 12 12 12 12 12 12 13 13 13 13 13 13 13 12 11 11 10 10 13 15 16 17 19 21 21 21 21 22 23 24 25 25 26 27 27 26 27 27 28 28
6 6 6 6 5 5 6 6 5 5 5 5 5 5 5 4 4 4 5 5 6 7 8 9 9 8 8 8 9 9 9 9 9 10 10 10 10 10 10 10 10 11 11 11 12 11 11 12 12 13 13 13 13 13 13 13 13 12 11 11 12 13 16 19 21 21 23 25 25 22 21 21 23 24 25 25 26 26 27 27 28 28 29 29 29
6 6 6 6 5 5 5 5 5 5 4 4 4 4 4 4 4 4 5 6 6 7 8 8 8 8 8 8 9 9 9 9 9 9 10 10 10 10 10 10 11 11 11 11 12 12 12 13 13 13 14 14 14 13 13 13 13 13 12 14 17 21 23 24 26 26 27 28 28 26 24 23 22 23 25 26 26 27 28 28 28 28 28 29 29
6 5 5 5 5 5 4 4 4 3 3 3 3 3 3 3 3 4 5 6 6 7 8 8 8 8 8 8 8 9 9 9 9 9 10 10 10 10 11 11 11 11 12 12 12 13 13 13 13 13 13 13 13 14 13 13 13 13 14 17 21 25 26 26 27 28 28 28 29 28 27 25 24 25 26 25 25 26 27 27 27 28 27 28 28
5 5 5 4 3 4 4 3 3 3 3 2 3 3 3 3 4 5 5 6 7 7 8 8 8 8 8 8 8 8 8 9 9 9 10 10 10 10 11 11 11 12 12 13 13 13 13 13 13 14 14 13 13 14 14 13 13 15 17 20 23 23 22 23 24 25 26 27 28 29 29 28 26 25 25 25 26 27 27 28 28 28 28 28 29
Wind_Direction
187 189 192 193 194 196 198 200 203 207 207 208 210 210 209 210 211 210 207 208 207 204 208 212 209 208 208 208 211 208 201 208 211 204 208 216 222 231 224 212 226 237 237 242 250 250 243 247 254 258 262 266 271 276 276 273 267 264 264 266 271 270 259 264 280 292 297 298 301 305 311 315 310 308 310 303 301 302 299 298 300 301 303 304 307
188 188 192 193 193 196 199 199 202 207 209 209 211 212 210 209 211 214 211 209 210 211 211 213 212 212 213 210 211 207 196 204 214 210 211 214 219 225 219 219 230 234 235 238 241 247 248 249 255 258 258 258 263 273 278 281 283 280 280 281 283 285 280 283 293 298 299 301 304 304 306 305 302 304 303 297 297 296 293 295 298 300 303 305 306
190 187 191 195 196 198 199 200 202 206 209 211 212 212 210 209 210 214 216 211 211 213 214 215 212 211 216 213 208 208 201 205 217 219 217 215 222 233 225 218 228 232 235 238 239 244 246 249 255 258 261 261 261 272 282 288 292 294 294 292 291 292 291 293 292 290 293 298 300 301 304 306 303 302 300 297 296 295 295 298 300 301 304 305 305
192 190 193 196 198 201 202 204 206 208 210 212 214 214 212 210 209 211 217 217 213 213 214 217 211 206 214 215 209 212 213 213 219 221 222 221 224 235 233 228 232 236 240 242 242 248 250 253 257 260 266 271 271 273 277 279 281 284 283 281 280 281 283 284 282 283 288 292 296 299 303 303 301 301 302 301 300 300 299 299 301 302 302 303 303
195 192 194 197 200 204 205 207 210 212 213 213 214 216 214 212 211 210 214 219 219 216 213 215 212 205 211 215 213 217 220 222 226 226 227 228 227 231 233 233 234 236 240 244 245 249 253 255 259 262 263 266 267 268 271 275 278 279 281 283 283 285 287 288 287 286 286 288 293 296 297 297 297 299 301 302 302 302 301 300 302 302 300 300 302
198 194 194 196 200 204 206 210 215 214 216 217 217 217 217 215 214 212 212 217 222 222 216 215 214 210 213 217 217 220 223 225 229 231 233 232 230 233 234 233 234 236 239 241 243 245 248 251 255 257 260 262 264 267 271 276 280 281 283 287 290 292 293 290 288 286 282 284 287 291 293 295 297 300 301 301 301 301 302 302 302 302 302 303 302
198 195 194 196 200 205 206 209 214 215 215 217 219 220 219 217 218 218 215 215 220 224 222 217 216 215 217 219 221 221 223 226 227 230 235 236 233 234 236 236 237 239 240 242 245 247 248 250 250 249 252 256 261 268 271 271 272 275 279 283 285 288 289 288 290 289 288 289 289 292 296 299 300 301 300 298 294 292 296 300 302 303 302 300 299
197 197 197 201 205 209 211 210 212 216 216 216 219 223 221 218 220 222 220 217 218 224 226 221 217 218 218 219 222 222 221 224 226 226 230 234 236 235 235 237 239 241 246 247 248 250 253 254 254 252 249 249 254 259 262 270 278 279 280 284 285 285 288 290 292 292 291 292 293 295 297 296 294 294 296 297 295 296 303 306 305 303 301 297 297
195 205 208 210 211 213 216 214 210 211 212 213 215 220 222 220 220 222 222 221 221 223 227 226 222 221 220 219 222 225 225 225 225 226 227 231 237 241 243 244 245 244 248 252 253 254 257 258 258 258 258 258 256 251 253 265 278 280 282 289 291 288 287 286 286 287 286 286 288 290 292 292 293 298 305 309 310 312 312 309 305 305 306 305 301
196 207 212 215 217 217 221 223 215 206 203 205 208 213 219 220 219 220 221 223 224 224 227 229 226 225 224 221 222 226 230 231 229 225 223 225 232 240 247 249 248 246 248 255 258 258 259 261 263 265 264 263 261 260 263 269 270 265 264 268 271 274 279 281 283 285 285 286 289 294 298 300 304 312 316 316 317 318 315 311 308 307 308 306 302
205 211 214 216 220 221 219 220 221 210 199 197 201 207 215 220 221 222 222 223 224 225 226 228 229 230 229 226 226 230 232 236 236 228 221 220 224 235 247 248 247 248 248 252 257 259 261 263 264 264 260 256 257 262 267 268 266 261 258 257 258 261 265 272 278 285 289 292 295 299 304 305 308 316 319 316 316 317 316 313 310 307 306 305 303
210 214 216 216 218 222 222 220 225 222 209 199 199 203 212 219 220 221 222 222 221 222 224 226 228 232 234 233 234 237 238 240 240 233 225 225 229 236 249 252 250 250 249 249 252 256 260 263 265 266 265 259 255 255 257 261 264 267 266 263 261 259 258 261 266 273 281 288 294 297 299 303 307 312 315 315 315 316 315 312 309 309 310 307 303
210 216 222 222 220 220 222 225 227 225 223 221 212 204 213 223 224 222 222 222 222 222 224 227 228 231 237 241 242 245 250 248 245 238 228 225 229 233 242 252 256 257 256 255 256 259 261 265 269 271 274 277 275 264 256 258 266 273 275 275 273 270 268 267 267 269 273 278 282 286 291 298 303 306 310 315 317 317 314 311 309 310 307 302 299
179 203 215 222 221 217 217 224 229 227 229 232 228 225 225 227 232 231 228 228 227 226 226 226 228 231 236 240 244 250 256 244 232 228 222 221 227 234 241 249 254 257 259 261 261 262 264 267 269 271 277 285 287 279 269 267 270 275 276 278 279 276 275 278 280 281 280 277 276 279 286 292 298 303 308 312 313 311 308 306 305 304 299 295 293
78 95 125 186 217 217 209 214 225 228 230 234 238 237 232 230 235 239 240 238 236 234 233 231 232 234 236 242 249 251 230 191 193 201 208 217 227 234 242 249 253 256 258 259 260 263 267 268 270 277 291 300 288 275 268 263 265 276 283 283 281 272 266 270 278 284 287 282 278 280 285 290 296 301 305 308 308 306 306 304 301 299 295 293 294
70 69 77 99 139 173 185 190 201 219 222 227 233 233 231 231 236 241 244 245 246 245 245 245 246 242 238 248 271 274 199 179 186 196 204 217 229 239 249 252 253 253 252 254 258 263 266 265 268 278 290 293 285 275 265 259 266 287 296 292 290 285 279 277 280 282 283 283 283 282 282 285 293 299 302 305 305 306 306 304 300 298 297 298 300
73 72 74 79 79 74 97 119 94 93 164 199 212 217 220 225 234 243 247 251 253 252 254 258 262 252 233 235 257 265 237 230 234 231 227 229 235 244 255 260 263 267 274 280 282 273 259 254 257 262 254 261 272 274 273 278 289 303 302 295 294 293 291 290 290 289 287 285 285 286 285 287 293 298 302 303 303 302 298 294 293 299 303 303 303
79 77 75 73 71 69 75 85 88 93 120 165 188 197 208 217 230 238 241 253 254 242 242 249 247 243 236 230 227 236 239 243 252 251 246 244 244 246 259 274 275 276 288 302 309 306 277 249 222 208 235 255 269 273 277 286 295 304 304 300 295 292 292 296 297 298 297 294 293 295 297 299 299 300 303 304 304 299 289 283 285 293 299 301 304
79 79 78 76 72 69 73 83 94 98 87 85 106 132 163 182 208 221 225 241 239 221 226 243 237 235 242 231 213 201 234 249 262 262 255 253 254 250 258 272 262 254 266 277 270 271 271 235 216 215 235 260 276 282 292 302 306 309 308 299 293 290 291 294 298 302 303 301 301 301 302 302 300 300 300 302 304 302 292 286 285 287 292 298 305
72 73 78 82 82 80 77 76 80 80 71 68 66 48 63 130 138 166 205 217 201 200 206 208 195 184 113 193 184 178 227 243 269 288 271 262 255 236 229 253 251 246 261 268 257 263 270 223 218 219 228 275 293 296 311 322 320 316 310 296 290 289 289 292 297 301 302 300 300 300 299 300 300 299 299 301 305 308 304 297 293 293 298 302 304
65 64 66 71 75 78 77 72 72 76 71 66 64 53 52 75 103 112 159 174 169 179 172 143 125 108 93 116 135 130 140 163 123 62 61 92 145 173 183 198 210 217 252 262 246 272 295 257 229 234 257 290 302 308 320 326 319 313 307 293 288 292 296 299 301 302 302 300 299 299 299 301 301 301 306 311 313 316 315 311 307 305 305 306 306
57 55 55 57 61 63 61 52 52 65 70 65 64 60 59 69 78 83 105 116 117 126 132 127 123 120 121 131 145 154 155 127 105 85 73 74 83 102 114 113 123 149 312 322 289 266 271 277 282 291 300 310 315 318 326 329 327 320 311 304 305 306 306 306 303 299 299 301 303 303 303 303 304 308 315 317 316 319 319 315 311 307 304 302 301
57 57 52 51 55 55 50 42 37 45 59 67 70 69 65 69 73 77 95 102 98 100 110 117 122 126 121 109 101 118 98 61 54 65 56 48 47 55 64 67 78 104 121 315 301 277 278 294 309 314 316 322 326 326 325 321 318 315 313 317 319 310 304 302 293 289 297 303 303 304 305 308 312 315 316 316 316 318 317 311 308 306 305 303 300
58 63 58 51 53 54 48 40 31 32 47 66 78 79 74 73 78 87 101 101 104 118 127 122 120 118 107 94 83 78 71 58 47 48 56 53 46 42 45 50 55 72 88 332 300 290 295 305 315 312 304 308 315 315 311 307 306 309 313 319 315 300 298 300 293 296 304 301 299 304 307 309 310 310 311 313 313 312 309 305 304 307 307 306 304
49 60 64 59 60 70 75 68 45 24 36 64 72 74 80 83 81 85 94 94 97 118 130 125 124 122 120 122 122 109 93 77 58 50 48 47 42 36 36 40 37 39 43 326 297 302 307 304 298 291 291 298 302 300 303 311 314 314 317 320 310 294 285 281 295 312 310 300 299 305 306 306 307 308 310 311 309 307 305 304 305 309 310 308 307
47 48 62 71 64 67 100 121 114 106 113 104 89 71 67 78 79 77 91 101 100 78 48 51 77 125 152 145 136 131 138 132 100 67 51 42 35 27 22 20 13 9 2 329 314 322 317 301 288 281 282 291 293 288 291 292 289 295 301 293 285 283 276 278 320 324 308 301 304 308 309 310 310 310 310 309 306 305 305 306 308 311 313 313 311
68 62 69 81 79 64 58 68 90 87 56 59 82 80 66 68 72 58 44 52 72 74 51 29 18 358 346 113 128 141 124 113 100 81 68 48 27 17 7 360 0 2 350 324 306 300 293 288 289 287 286 291 287 275 271 262 255 270 281 276 276 286 292 312 323 312 304 310 315 312 311 310 309 309 310 309 307 306 307 310 312 313 314 313 311
54 62 69 72 73 77 75 61 50 61 56 43 46 50 48 52 61 53 34 28 33 32 27 43 40 16 11 17 356 357 71 80 72 56 48 34 18 14 4 349 344 336 316 300 290 283 279 280 286 288 283 280 272 261 256 247 238 257 276 280 289 295 292 306 312 304 311 325 320 311 309 308 308 310 310 307 306 308 311 313 312 310 309 309 306
37 32 40 53 49 41 58 56 33 31 65 82 63 46 36 39 52 55 39 27 25 16 13 33 43 25 19 24 4 3 35 43 29 18 19 11 4 5 343 321 310 303 302 303 301 296 287 282 283 282 273 269 265 257 250 241 232 243 264 281 296 292 290 311 320 317 331 331 318 310 309 310 310 310 308 306 308 311 312 311 308 306 306 305 301
47 40 35 35 28 18 30 49 34 15 26 59 65 53 42 40 43 42 28 14 3 350 346 354 359 6 25 29 1 345 358 1 350 351 352 341 328 310 294 297 306 309 308 309 310 306 296 287 284 278 270 272 275 272 269 264 264 281 292 296 302 305 311 322 328 332 336 328 315 310 314 314 311 310 310 312 313 313 311 309 307 307 307 305 302
54 54 50 43 31 20 24 34 31 18 17 23 25 32 64 74 51 35 31 27 23 17 6 354 342 343 71 68 26 355 344 335 329 329 324 311 301 291 288 293 303 310 314 314 312 306 295 287 283 275 266 268 275 279 290 301 301 308 311 308 313 319 320 328 345 345 331 318 313 316 317 313 310 312 315 315 313 312 311 311 311 310 308 307 306
50 49 50 49 41 32 31 30 25 20 16 11 4 353 340 161 132 83 47 33 29 28 24 16 8 359 358 45 3 330 329 328 324 321 317 310 303 296 293 293 295 303 313 311 305 300 294 289 287 281 273 270 274 285 299 301 298 308 316 315 319 324 322 330 342 336 320 311 317 319 314 310 311 314 315 314 311 311 313 314 314 313 310 308 308
56 49 45 42 32 28 31 27 22 18 10 3 1 352 339 339 360 99 103 32 354 8 17 17 14 8 360 353 333 314 312 318 322 323 319 315 311 303 295 289 287 288 292 294 291 290 290 285 282 282 281 279 283 294 307 307 308 314 317 314 313 315 318 326 329 322 313 316 320 316 311 313 316 315 313 311 309 310 313 313 312 311 310 309 309
56 53 52 50 37 26 24 18 14 14 6 357 353 342 337 344 343 333 311 263 247 244 265 303 335 1 4 359 347 329 320 320 320 318 316 313 314 311 303 295 286 279 278 279 279 281 283 282 284 292 300 302 304 307 308 309 309 307 306 307 307 309 318 323 318 316 320 323 319 315 314 316 315 312 310 309 309 309 309 309 309 309 308 309 309
57 52 51 48 37 22 19 16 8 2 357 350 342 335 332 334 327 318 317 310 298 288 257 227 232 326 349 349 345 341 341 337 328 319 311 308 309 312 311 304 291 279 275 271 265 266 276 287 296 306 310 307 304 302 299 296 295 295 297 300 304 309 316 314 310 314 323 322 314 313 315 315 312 311 309 308 309 309 307 307 308 307 307 308 307
79 69 52 43 33 21 16 13 3 355 347 336 326 323 322 319 315 313 312 305 304 313 317 281 264 286 304 318 338 351 352 345 335 326 316 311 309 307 304 299 294 289 286 274 259 258 270 284 291 295 296 295 296 299 298 295 293 293 294 297 299 300 303 305 308 312 315 311 307 309 311 310 311 313 313 311 309 308 307 308 308 307 306 307 307
59 71 51 33 18 8 6 4 351 344 337 322 315 315 313 312 315 312 309 310 312 317 321 317 303 277 243 235 342 1 358 350 346 345 339 323 318 308 291 284 287 294 298 290 275 274 282 288 290 291 292 290 289 289 288 288 289 290 291 294 297 298 298 300 301 301 299 300 303 307 309 309 311 313 313 311 309 309 309 309 308 306 306 307 306
60 44 14 8 6 343 337 322 309 313 305 285 287 301 305 308 310 304 301 309 315 307 303 303 298 286 260 247 339 6 2 353 350 350 338 299 296 299 288 286 294 300 301 299 296 294 292 289 289 291 290 287 289 290 286 281 281 284 289 293 296 297 297 297 295 294 296 299 303 306 307 308 310 312 312 311 309 308 307 307 308 308 309 309 306
208 267 303 322 26 327 322 311 291 293 296 290 290 298 296 294 299 301 299 300 300 299 301 301 299 310 340 359 358 360 356 347 344 344 337 318 305 303 302 306 310 310 309 308 304 302 302 303 307 312 306 298 300 305 300 290 282 277 280 287 289 289 291 294 294 296 298 299 300 303 306 307 308 309 308 308 308 307 308 309 310 309 307 305 302
206 221 264 317 323 292 290 290 281 274 283 300 304 301 296 292 293 296 297 299 297 299 305 304 304 353 43 24 354 346 341 330 324 325 326 324 324 320 314 313 310 308 310 308 305 317 337 341 339 340 338 334 333 333 328 320 309 292 281 280 284 285 289 294 296 296 297 297 298 300 301 302 305 306 305 306 308 308 307 305 304 303 301 299 299
208 204 214 254 299 296 270 262 260 259 289 305 301 290 288 294 294 290 291 296 298 301 300 297 304 44 29 343 334 339 333 318 308 307 311 317 323 322 317 315 312 307 305 301 299 316 340 343 337 331 330 331 335 338 337 335 332 319 302 295 295 295 295 296 297 298 299 299 299 299 298 299 302 303 302 304 306 305 302 300 300 302 302 302 301
214 215 219 230 250 269 263 260 259 262 271 275 271 269 282 296 295 292 295 296 298 302 303 298 301 2 357 331 334 339 331 310 295 295 302 308 314 315 313 314 311 306 307 308 307 312 322 326 325 323 319 318 322 329 331 330 331 330 323 316 314 310 306 303 303 304 302 300 298 298 298 299 300 299 298 299 301 301 300 300 301 302 302 301 301
208 217 220 224 233 242 251 260 263 261 261 263 262 274 292 297 292 290 292 293 291 293 295 293 292 292 307 333 339 338 328 308 296 298 301 304 308 310 310 309 308 310 316 321 320 314 311 311 312 315 315 312 313 317 318 317 317 318 317 314 313 310 305 302 301 301 300 298 298 298 298 298 297 297 297 298 299 298 298 298 298 299 300 301 301
202 214 217 219 227 231 234 245 251 251 255 273 281 272 268 272 279 281 281 281 282 281 281 285 287 284 283 300 318 319 311 304 304 304 305 306 306 304 303 303 305 310 316 317 317 316 313 310 308 308 308 307 307 306 307 307 308 308 308 307 305 303 300 299 299 299 298 298 297 297 297 297 296 296 296 297 298 299 298 298 298 298 298 298 298
207 215 215 215 216 214 212 223 238 244 250 258 259 254 252 257 265 268 267 268 275 277 277 279 283 283 282 286 294 297 298 299 299 298 299 301 299 297 299 301 304 308 309 309 310 313 313 311 310 308 306 305 304 302 303 305 304 302 303 303 302 301 302 305 307 307 308 308 306 304 305 306 305 302 300 300 301 301 300 298 298 297 296 296 296
217 218 219 216 214 210 210 220 231 236 242 251 252 250 252 252 253 257 261 266 273 277 278 278 279 278 279 282 285 288 290 292 293 294 296 297 297 297 300 301 302 305 305 303 304 306 306 306 307 306 305 306 305 304 304 304 302 301 303 302 299 297 302 309 312 313 316 318 317 315 314 312 307 303 302 300 300 298 296 296 296 296 296 296 295
221 219 224 222 212 208 213 218 222 228 238 248 251 252 254 253 251 255 261 264 267 270 274 276 276 276 278 282 285 287 287 288 289 291 293 293 294 297 299 301 302 303 303 302 303 304 304 305 306 306 305 306 305 304 304 304 302 302 304 303 301 305 314 318 319 321 323 321 318 316 314 309 304 302 300 299 298 297 295 294 294 294 294 294 293
220 216 223 223 217 215 214 211 212 223 235 239 237 241 250 255 257 261 262 261 262 267 270 272 275 278 281 282 283 284 285 286 288 289 292 294 296 298 300 303 304 303 303 303 304 305 305 305 306 307 307 306 305 305 305 305 304 303 303 305 312 319 321 320 320 321 320 318 317 318 317 312 307 302 298 296 296 295 294 292 292 292 291 291 290
217 215 217 215 218 225 221 212 213 224 230 229 228 233 243 249 251 258 263 265 265 267 271 275 278 280 281 282 284 286 287 288 290 292 294 295 297 299 300 302 303 303 304 304 305 305 304 303 303 304 305 304 304 304 304 304 304 302 301 304 308 311 313 315 317 318 316 315 315 316 316 313 309 303 298 295 293 290 289 289 289 289 288 288 288
208 214 214 207 211 221 219 214 224 231 231 237 242 240 241 248 250 254 262 267 269 269 271 274 277 278 279 281 283 285 288 290 291 294 296 297 299 301 303 304 305 306 305 304 304 305 303 303 303 304 305 305 305 304 305 304 302 301 305 308 308 308 310 312 313 312 312 312 312 312 312 311 306 301 297 295 291 288 287 287 287 287 288 287 287
198 203 204 199 206 216 211 208 217 221 219 236 254 254 253 259 262 262 263 266 267 268 270 273 275 277 280 281 283 285 287 289 291 294 295 297 299 301 303 305 307 307 306 306 307 307 306 306 306 306 306 306 305 305 305 302 299 300 308 314 314 313 314 313 311 309 311 311 310 309 309 306 300 294 291 290 288 287 286 286 286 286 286 286 286
Height
833 836 838 840 842 843 845 847 849 850 851 852 853 854 855 855 856 857 858 859 860 861 862 863 863 864 864 865 865 865 866 867 868 868 869 870 871 870 870 870 871 871 871 871 870 870 870 870 871 870 870 870 869 869 868 867 867 867 867 867 866 866 867 867 867 866 865 864 863 861 860 860 859 859 858 857 856 855 854 853 851 849 848 845 844
831 834 836 838 840 841 843 845 847 848 849 850 851 852 853 854 855 856 856 858 858 859 860 861 862 863 863 863 864 864 865 866 867 867 868 869 869 869 869 870 870 870 870 870 870 870 870 870 870 870 869 869 869 868 867 867 866 866 866 866 866 865 866 866 866 865 864 863 862 861 860 859 858 857 857 856 855 854 852 851 849 848 846 844 843
830 833 835 837 838 840 842 843 845 846 847 848 849 850 851 852 854 855 855 856 857 858 859 860 861 861 862 863 863 864 864 865 866 866 866 867 867 867 867 868 869 869 869 869 869 869 869 869 869 869 869 868 868 868 867 867 867 866 866 866 866 865 865 865 865 865 864 862 861 860 858 858 857 856 855 854 853 852 850 849 848 846 845 844 842
829 832 834 836 837 838 840 841 843 844 845 846 847 848 849 850 852 853 854 854 855 856 857 858 859 860 861 862 862 863 864 864 865 865 865 866 866 866 866 867 868 868 868 868 868 868 868 868 868 868 868 868 868 868 867 867 867 866 866 866 865 865 865 865 864 864 863 862 861 859 858 857 856 855 854 853 851 850 849 848 847 845 844 843 841
828 830 832 835 836 837 839 840 841 842 843 844 845 846 847 848 850 851 852 853 854 854 856 857 858 859 860 861 862 862 863 863 864 864 864 864 865 865 865 866 866 866 866 867 867 867 867 867 867 867 867 867 867 867 867 866 866 866 865 865 864 864 864 864 864 863 863 861 860 859 858 856 855 854 853 852 850 849 847 847 846 844 843 841 840
827 829 831 833 835 836 837 838 839 840 841 842 842 844 844 845 847 848 849 851 852 853 854 855 856 857 859 859 860 861 862 862 863 863 863 863 863 864 864 864 865 865 865 865 865 865 865 866 866 866 866 866 866 866 866 866 866 865 865 865 864 864 864 863 863 862 862 860 859 858 856 855 854 852 852 851 849 848 846 845 844 843 841 840 839
827 828 830 832 833 834 835 837 837 838 839 840 841 842 843 844 845 846 847 849 850 851 852 853 855 856 857 858 858 859 860 861 861 862 862 862 862 863 863 863 863 863 863 863 863 864 863 864 864 864 865 865 865 865 865 865 865 865 865 865 864 864 863 863 862 861 860 859 858 856 855 854 853 852 851 850 848 847 846 844 842 841 840 839 837
827 828 830 831 832 833 833 835 835 836 838 839 840 840 841 842 843 844 845 847 848 850 850 851 852 853 854 855 856 857 858 859 859 860 861 861 861 861 862 862 862 862 862 862 862 862 862 862 862 862 862 863 863 864 864 864 864 864 864 864 864 863 863 862 861 861 860 858 857 856 854 853 852 851 849 848 847 845 844 843 841 839 837 836 835
827 829 829 830 831 832 832 833 833 834 836 837 838 839 840 841 842 843 844 845 847 848 849 850 850 851 852 853 854 855 856 856 857 858 859 860 860 861 861 861 861 861 861 861 861 861 860 860 860 860 861 861 862 862 862 863 864 864 863 863 863 863 862 862 861 860 859 858 857 855 853 852 850 849 848 847 846 845 844 843 840 838 836 834 833
826 828 829 830 830 831 831 831 831 832 833 835 836 838 839 840 841 842 843 844 845 847 848 849 849 850 850 851 852 853 853 854 855 857 858 859 860 860 860 860 861 860 860 860 860 859 859 859 858 859 859 860 860 860 861 862 862 862 862 862 862 862 862 861 860 860 859 857 856 854 853 851 850 849 849 848 847 846 844 842 840 838 836 833 830
824 826 827 829 829 830 830 830 830 830 831 833 834 836 838 839 840 841 842 843 844 846 847 848 848 848 848 849 850 851 851 853 853 854 856 857 859 859 859 860 859 859 858 858 859 858 858 857 857 857 857 858 858 859 859 860 860 860 861 860 861 861 861 860 860 859 858 857 855 854 853 852 850 850 849 848 846 845 843 842 840 837 836 833 829
823 824 825 826 827 828 829 829 829 830 830 832 834 835 837 838 839 840 841 842 843 844 845 846 847 847 847 848 849 849 850 851 851 852 853 855 856 858 858 858 857 857 857 857 857 857 856 856 856 855 855 855 856 857 857 858 858 858 859 859 859 859 859 859 858 858 857 856 855 854 854 852 850 848 848 846 845 843 842 841 839 837 835 833 830
822 823 824 826 826 827 828 829 830 831 831 833 834 835 836 837 838 839 840 841 842 843 844 845 845 846 847 847 848 848 849 849 850 850 851 852 854 855 856 857 856 855 855 855 855 855 855 855 855 854 854 854 855 855 856 856 856 856 857 857 858 858 858 858 857 857 856 855 854 853 853 852 849 847 846 845 844 842 840 839 838 836 834 832 829
821 822 823 825 825 826 828 829 830 831 832 833 834 835 836 837 837 838 839 839 840 841 842 843 844 845 846 846 847 848 848 848 848 849 850 851 852 853 854 855 855 854 855 854 854 853 853 854 853 854 854 854 853 854 855 855 855 856 856 856 856 856 856 856 855 855 854 854 853 852 851 851 848 846 845 845 843 842 840 838 836 835 832 829 827
822 823 823 824 826 827 827 828 830 831 832 833 834 835 835 836 836 837 837 838 839 840 841 842 843 844 845 846 847 847 846 845 847 848 848 849 850 851 853 854 853 853 853 853 853 853 852 852 852 853 852 852 852 853 853 854 854 855 855 855 855 854 853 853 853 852 852 852 851 850 850 849 848 846 844 843 842 841 839 837 835 833 830 827 824
825 825 825 827 827 827 827 828 828 829 831 832 834 835 835 835 836 836 836 837 838 839 841 842 843 842 843 844 846 847 846 845 846 847 847 848 849 850 852 852 852 852 852 852 852 851 850 850 850 850 850 851 852 851 851 852 853 853 854 854 854 853 852 852 851 851 851 850 849 849 848 848 846 844 843 841 840 838 837 835 834 831 828 825 822
827 827 828 829 829 828 828 828 828 829 830 832 834 834 834 835 835 836 837 837 838 839 842 843 843 842 841 842 844 846 846 846 846 846 846 847 847 849 851 851 851 851 852 852 851 850 849 848 849 849 849 849 850 850 850 851 852 853 853 853 852 852 851 851 850 849 849 848 848 847 846 845 843 841 840 839 837 836 835 833 832 830 827 824 821
828 829 829 830 830 830 830 830 830 831 832 833 833 833 834 835 834 835 836 837 838 840 842 843 842 841 841 841 842 844 845 846 846 846 845 845 845 847 849 849 849 850 852 852 851 850 849 848 848 848 848 847 848 848 849 849 850 851 852 851 851 850 850 849 849 848 847 846 845 844 843 842 840 838 837 836 835 834 833 831 830 828 826 824 821
829 830 830 831 831 832 831 831 832 833 834 833 833 833 833 834 834 834 836 837 838 839 840 841 841 840 840 840 841 842 844 845 846 845 844 844 844 845 847 847 847 848 849 850 851 850 849 848 847 847 846 846 847 847 847 847 848 849 850 850 849 849 848 848 847 846 845 844 843 842 840 839 838 836 834 833 832 831 830 829 828 827 825 823 821
831 831 832 832 833 833 833 833 834 834 835 834 834 834 833 833 834 835 835 836 837 837 839 840 840 840 840 840 841 843 844 845 845 845 844 843 843 844 845 844 845 847 848 849 850 850 849 848 846 846 846 846 846 845 845 846 846 847 848 848 848 847 847 846 846 845 843 842 841 840 838 837 836 834 833 831 830 829 829 828 827 826 824 821 820
832 833 833 834 834 834 835 836 836 836 836 836 835 835 834 834 835 836 836 836 836 837 839 840 840 840 841 841 842 844 845 844 844 845 845 844 843 843 843 843 844 846 848 849 850 850 849 849 847 845 845 845 844 844 843 844 844 845 846 847 846 846 845 844 843 842 841 840 839 838 837 836 834 833 831 830 830 829 828 827 826 825 823 821 819
834 835 835 836 836 837 837 838 837 837 838 837 836 836 836 836 836 836 836 836 836 837 839 840 840 840 841 841 842 844 844 844 844 845 845 845 844 843 843 844 845 846 848 849 849 848 849 850 848 845 844 844 844 843 843 842 843 843 844 844 844 844 843 842 841 841 840 839 838 837 836 835 833 832 831 830 829 828 827 826 825 824 822 821 819
836 836 837 838 838 839 839 839 839 839 839 838 838 838 837 837 837 837 837 838 838 838 839 840 840 840 841 842 843 844 845 845 845 845 845 845 844 844 844 844 845 846 848 851 850 849 849 850 848 845 844 843 843 842 842 841 841 841 842 842 842 842 842 841 840 840 839 838 838 837 836 835 833 832 831 830 829 828 826 825 823 822 820 819 818
837 838 838 839 840 841 841 840 840 841 841 840 840 839 838 838 838 839 839 839 839 840 840 840 840 841 841 842 843 844 845 845 845 844 844 844 844 845 845 845 845 846 848 850 852 851 850 848 846 845 844 843 842 841 840 839 839 840 840 841 841 841 840 840 840 839 838 837 837 836 835 834 833 832 831 829 828 827 825 824 822 821 819 817 816
838 838 839 840 840 841 842 842 842 842 842 841 840 840 840 840 840 840 840 840 840 840 840 840 840 840 841 843 845 846 845 845 845 845 845 844 844 845 845 845 845 846 847 849 850 850 848 847 846 845 844 842 840 840 839 838 838 839 839 840 840 839 839 839 839 839 838 837 836 835 835 834 833 831 830 829 828 826 824 823 821 820 818 816 814
840 840 840 840 841 842 842 842 842 842 842 841 840 840 840 840 841 841 841 841 841 841 840 840 840 840 840 841 844 845 846 846 847 846 846 845 845 845 846 846 846 846 847 848 847 846 846 846 846 844 842 840 839 838 837 837 838 838 839 839 839 838 838 838 838 838 838 837 836 835 834 833 832 830 829 828 826 825 823 822 820 818 817 815 813
842 842 841 841 842 842 842 841 841 841 841 840 840 840 841 841 842 842 842 841 841 841 842 842 841 841 840 840 842 843 844 845 846 846 846 846 845 845 846 846 847 847 848 848 847 845 845 844 843 842 840 839 838 837 837 837 837 838 838 838 838 838 838 837 838 838 837 837 836 835 833 832 831 829 828 827 826 824 822 821 819 817 816 814 812
841 841 841 841 841 842 842 841 841 840 841 841 841 841 841 842 843 843 843 843 843 843 843 843 843 843 843 843 843 843 843 845 846 846 846 846 846 846 847 848 848 849 849 848 847 846 844 842 841 840 838 837 837 836 836 836 836 837 837 837 838 838 837 837 837 837 837 836 836 834 832 831 829 828 827 826 825 823 822 820 819 816 815 813 811
842 842 841 841 841 841 841 841 841 841 841 842 843 843 843 843 844 845 845 844 844 844 844 845 845 845 846 846 846 845 845 846 846 846 847 847 847 847 848 849 849 849 849 848 846 845 843 841 839 838 837 836 835 834 834 834 835 836 837 837 838 838 837 837 837 837 836 836 835 833 831 830 829 828 827 825 824 823 821 820 818 816 814 812 810
843 843 843 843 843 843 842 843 843 843 842 842 843 844 844 845 845 846 845 845 845 845 845 845 846 846 847 847 847 846 847 847 847 847 847 848 848 848 849 849 849 848 847 846 845 843 841 840 838 836 836 835 834 833 833 833 834 835 836 836 837 837 837 837 837 837 836 836 834 833 831 830 829 827 826 825 823 822 821 819 817 815 813 811 808
844 844 845 846 846 846 845 845 846 845 845 845 845 845 845 845 845 846 846 846 846 846 846 846 846 846 847 847 847 847 847 847 847 847 848 848 848 848 848 848 848 847 846 845 844 842 840 838 837 836 835 835 834 834 834 834 835 836 836 837 837 837 837 838 837 837 837 836 834 833 831 830 829 827 826 825 823 821 820 818 816 814 812 810 808
845 845 846 847 847 848 848 848 848 847 847 847 846 846 845 844 844 845 845 845 846 846 846 846 846 846 846 847 847 847 847 847 847 847 847 847 847 847 847 847 846 846 845 844 843 841 840 838 837 835 835 834 834 834 835 836 836 837 837 838 838 838 838 838 838 838 838 836 835 833 832 830 828 827 826 825 823 821 819 817 815 814 812 810 808
846 847 847 848 848 848 849 849 848 848 848 848 848 847 846 845 844 844 845 845 845 845 845 846 846 846 846 846 847 846 846 846 846 846 846 845 845 845 845 845 845 845 844 843 842 841 840 838 837 835 835 835 835 835 836 837 837 838 838 838 838 838 839 838 838 838 837 836 835 834 832 830 829 827 826 824 822 820 818 817 815 813 811 809 807
847 848 848 848 849 849 849 849 849 849 849 848 848 848 847 847 846 846 845 844 844 845 845 845 845 846 846 846 845 845 845 845 845 845 845 844 844 844 844 844 844 843 843 842 842 841 839 838 837 836 836 836 836 836 837 837 838 838 839 838 838 838 838 838 838 837 836 836 835 834 832 830 829 827 825 824 822 820 818 816 814 812 810 808 807
848 849 849 849 849 850 850 850 849 849 849 849 849 848 848 848 847 847 846 845 845 844 844 845 845 845 845 845 844 844 844 844 843 843 843 843 843 843 843 843 842 841 840 840 840 840 839 838 837 837 837 837 837 837 838 838 838 838 838 838 838 838 838 838 837 837 836 836 835 833 832 831 829 827 825 823 822 820 818 816 814 812 810 809 807
849 850 850 850 850 850 850 850 850 850 850 849 849 849 848 848 847 847 846 846 845 845 845 845 845 845 844 844 844 844 843 843 842 841 841 842 842 842 842 842 841 840 839 839 839 838 838 838 838 838 838 838 838 838 838 838 838 838 838 838 838 838 837 837 837 836 836 836 834 833 832 830 828 827 825 823 822 820 818 816 814 812 811 809 807
850 850 850 850 851 850 850 850 850 850 850 849 849 849 848 848 848 847 847 846 846 846 846 846 845 845 844 844 844 844 843 843 842 840 840 841 841 841 841 841 840 839 839 838 838 838 837 837 838 838 838 838 838 839 839 839 839 839 839 839 838 838 838 837 836 836 835 834 833 832 830 829 828 827 825 823 821 820 818 816 814 812 810 809 807
850 850 850 850 850 850 851 851 850 850 850 849 849 849 848 848 848 847 847 847 847 846 846 845 845 844 844 844 844 844 843 843 842 840 840 841 841 841 841 840 840 839 839 838 838 837 837 837 838 838 838 838 838 838 838 838 839 839 839 839 839 838 837 836 835 834 833 832 831 830 829 828 827 826 825 823 821 819 817 816 814 812 810 808 806
850 850 851 851 850 851 851 851 850 850 850 849 849 849 849 848 848 847 847 846 846 846 845 845 845 844 844 844 845 845 845 845 844 843 842 841 841 841 841 840 840 840 839 838 838 838 838 838 838 838 838 838 838 838 838 837 837 837 837 838 837 837 836 835 834 833 832 831 830 829 829 828 827 825 824 823 821 819 817 815 814 812 810 808 805
850 850 850 850 851 851 851 851 850 850 850 850 849 849 849 848 848 848 847 847 846 846 845 845 845 844 844 845 845 846 846 847 846 845 844 843 842 842 842 841 841 840 839 839 839 839 839 839 838 838 838 838 838 838 838 837 836 836 836 836 836 835 835 834 833 832 831 830 829 828 827 827 826 824 823 821 820 819 817 815 813 812 809 807 804
849 849 849 849 850 850 850 850 850 849 850 850 849 849 849 849 849 848 848 847 847 846 846 845 845 844 844 845 845 846 847 847 847 846 845 844 843 843 843 842 841 841 840 840 840 840 840 840 840 840 840 839 839 839 838 837 837 836 835 835 835 834 834 834 833 832 831 830 828 827 826 825 824 823 822 820 819 818 816 814 812 810 808 806 804
848 848 849 849 849 849 849 849 849 849 850 850 849 849 849 849 848 848 848 848 848 847 846 846 845 844 844 845 846 846 847 847 847 846 845 844 844 844 843 843 842 841 841 840 840 840 841 841 841 841 840 840 840 839 838 838 838 837 836 835 834 834 834 833 832 831 831 830 829 827 826 825 824 822 821 819 818 816 815 813 811 809 807 805 803
847 847 848 848 848 848 848 848 848 849 849 848 848 848 848 848 849 848 848 848 848 848 847 847 846 845 845 845 846 847 847 846 846 846 845 845 845 844 844 843 843 842 841 841 841 841 841 841 841 841 841 840 840 839 839 839 838 838 837 836 835 835 834 834 833 832 831 829 828 827 826 824 823 822 820 819 817 815 813 811 810 808 807 804 803
846 846 847 847 847 847 847 847 848 848 848 848 848 848 848 848 848 848 848 848 848 848 848 848 847 846 846 846 846 847 847 846 846 846 846 845 845 845 845 844 843 843 843 842 842 842 842 841 841 841 841 841 840 840 840 839 839 838 837 837 836 835 835 834 833 832 831 829 828 827 825 823 822 821 819 817 816 814 812 810 809 807 805 803 801
844 845 845 845 845 845 846 846 847 847 847 847 847 847 847 847 847 847 848 848 848 848 848 848 847 847 847 847 847 847 847 846 846 846 846 846 845 845 845 844 844 844 843 843 843 842 842 842 841 841 841 840 840 839 839 839 838 838 837 837 836 835 834 832 831 830 830 829 828 826 824 823 821 820 818 816 815 814 812 810 808 806 803 801 799
843 843 843 843 843 844 844 844 846 847 847 847 846 846 846 846 846 847 847 847 848 848 849 848 848 848 847 847 847 847 846 847 846 846 846 846 845 845 845 844 844 844 844 843 843 842 842 842 841 840 840 839 839 839 838 838 837 837 837 836 835 833 831 830 830 829 829 828 826 825 824 822 821 820 818 816 815 813 811 809 808 805 803 800 798
841 841 842 842 842 843 843 844 845 846 846 846 846 846 845 846 846 846 847 847 848 849 849 849 848 848 847 847 847 847 847 847 847 846 846 846 845 845 845 844 844 844 843 843 843 842 841 841 840 840 839 839 838 838 837 837 836 836 836 835 832 830 829 829 829 828 827 826 825 824 823 821 819 818 817 815 814 812 809 808 806 804 802 800 797
840 841 841 841 841 842 842 843 844 845 845 845 845 845 845 846 846 846 846 847 847 848 848 848 848 847 847 847 847 847 847 847 847 846 846 846 845 845 845 844 844 844 843 842 842 841 840 840 840 839 838 838 837 837 836 836 835 835 835 832 829 828 828 828 827 826 825 824 823 822 820 819 817 816 815 814 812 810 808 806 804 802 800 798 795
840 840 840 841 841 841 842 842 843 843 844 844 844 845 845 845 846 846 846 847 847 847 847 847 847 847 847 847 848 847 847 847 846 846 846 846 845 845 844 844 843 843 842 842 841 840 840 839 839 838 837 837 836 835 835 834 834 834 833 830 828 827 827 826 825 824 823 822 820 820 818 817 816 814 813 812 810 808 806 804 802 800 798 795 793
840 840 840 841 841 841 842 842 843 843 843 844 844 844 845 845 846 846 846 846 846 847 847 848 848 848 848 847 847 847 847 847 846 846 845 845 845 844 844 843 843 842 842 841 840 840 839 838 838 837 836 835 835 834 834 833 833 832 830 828 827 826 825 824 823 822 821 820 818 817 816 815 814 812 810 809 807 805 803 801 799 797 795 792 790
840 840 840 841 842 842 842 843 843 843 844 844 844 844 845 845 845 845 846 846 847 847 847 847 847 848 848 847 847 847 846 846 846 845 845 844 844 843 843 843 842 841 841 840 839 839 838 837 836 836 835 834 834 833 833 832 832 830 828 827 826 825 824 824 822 821 820 818 817 815 814 813 812 810 808 807 805 803 801 799 797 795 793 790 788